Location: Cerbedi�res
(48.2182°N, 1.4849°W)
Time: 20:02:25
(UTC+00:00)

Nadezhda 3 Rocket - Pass Details

Date: 03 March 2021
Orbit: 957 x 999 km, 82.9° (Epoch: 14 April)

Event Time Altitude Azimuth Distance (km) Brightness Sun altitude
Rises 19:11:40 0° 349° (NNW) 3,725 7.3 -13.8°
Reaches altitude 10° 19:14:12 10° 347° (NNW) 2,775 6.6 -14.2°
Maximum altitude 19:20:32 70° 265° (W) 1,063 4.4 -15.3°
Drops below altitude 10° 19:26:50 10° 184° (S) 2,761 6.3 -16.3°
Sets 19:29:21 0° 182° (S) 3,704 7.0 -16.7°
